SCP
1 1 1 1 1 1 1 1 1 1 1 1 0 1 1 1 1 1 1 1 1 1 1 1 1 1 1 1 1 1 0 0 0 0 0 0 0 0 0 0 0 0 0
1 1 1 1 1 0 1 1 1 1 0 0 1 1 1 1 1 1 1 1 1 0 0 1 1 1 1 1 1 1 1 0 0 0 0 0 0 0 0 0 0 0 0
1 1 1 1 1 0 0 0 0 0 0 1 1 1 1 1 1 1 1 1 0 0 0 0 0 1 1 1 1 1 1 1 1 0 0 0 0 0 0 0 0 0 0
1 1 1 1 1 0 0 0 0 0 0 1 1 0 0 0 0 0 0 0 0 0 0 0 0 0 1 1 1 1 1 1 1 0 0 0 0 0 0 0 0 0 0
1 1 1 1 1 0 0 0 0 0 0 0 0 0 0 0 1 1 0 0 0 0 0 0 0 0 0 1 1 1 1 1 1 0 0 0 0 0 0 0 0 0 0
0 0 1 1 1 0 0 0 0 0 0 0 0 0 0 0 1 1 1 1 1 1 1 0 0 0 0 1 1 1 1 1 1 0 0 0 0 0 0 0 0 0 0
1 1 1 1 1 1 1 1 0 0 0 0 0 0 1 1 1 1 1 1 1 1 1 1 0 0 0 1 1 1 1 1 0 0 0 0 0 0 0 0 0 0 0
1 1 1 1 1 1 1 1 1 1 1 0 0 1 1 1 1 1 1 1 2 1 1 1 1 0 0 0 1 1 1 1 0 0 0 0 0 0 0 0 0 0 0
1 1 1 1 1 1 1 1 1 1 1 1 1 1 1 1 1 1 1 1 1 1 1 1 1 0 0 1 1 1 1 1 0 0 0 0 1 1 1 0 0 0 0
1 1 1 1 1 1 1 1 2 1 1 1 1 1 1 1 1 1 1 1 1 1 1 1 1 1 1 1 1 1 1 1 0 0 0 1 1 1 1 1 0 0 0
1 1 1 1 1 1 1 1 2 2 2 1 1 1 1 1 1 1 1 1 1 1 1 1 1 1 1 1 1 1 1 1 0 0 0 1 1 2 1 1 1 0 0
1 1 1 1 1 1 1 1 2 2 2 1 1 1 0 0 0 0 1 1 1 1 1 1 1 1 1 1 1 1 1 0 0 0 1 1 2 2 2 1 1 1 1
1 1 1 1 1 1 1 1 2 2 2 1 1 1 0 0 0 0 0 1 1 1 1 1 1 1 0 0 0 0 0 0 0 0 1 1 2 3 3 2 1 1 1
2 2 2 2 2 2 2 2 2 2 2 1 1 1 0 0 0 0 0 0 0 0 0 0 0 0 0 0 0 0 0 0 0 0 1 1 2 3 3 3 2 1 1
2 2 2 2 2 2 2 2 2 2 2 1 1 1 0 0 0 0 0 0 0 0 0 0 0 0 0 0 0 0 0 0 0 0 1 1 3 3 4 3 2 1 1
2 2 2 2 2 2 2 2 2 2 2 1 1 1 0 0 0 0 0 0 0 0 0 0 0 0 0 0 0 0 0 0 0 1 1 1 2 3 4 3 2 2 1
2 2 2 2 2 2 2 2 2 2 1 1 1 1 1 1 0 1 1 0 0 0 0 0 0 0 0 0 0 0 0 0 0 1 1 1 2 2 3 3 2 2 1
2 2 2 2 2 2 2 2 2 1 1 1 1 1 1 1 1 1 1 0 0 0 0 0 0 0 0 0 0 0 0 0 0 0 1 1 1 1 2 2 2 2 2
2 2 2 2 2 2 2 1 1 2 2 1 1 1 1 1 1 1 1 1 0 0 0 0 0 0 0 0 0 0 0 0 0 0 0 0 1 1 1 1 1 1 2
2 2 2 2 2 1 1 1 1 2 2 1 1 1 1 1 1 1 1 1 0 0 0 0 0 0 0 0 0 0 0 0 0 0 0 0 0 1 1 1 1 1 1
2 2 2 2 2 2 1 2 2 2 2 2 2 1 1 1 1 2 2 1 1 0 0 0 0 0 0 0 0 0 1 0 0 0 0 1 0 0 0 1 1 1 1
2 3 3 2 2 2 2 2 2 2 2 2 2 1 1 1 1 2 2 2 1 1 0 0 0 0 1 1 1 1 1 1 1 1 1 1 0 0 0 0 0 1 1
3 3 3 3 3 3 3 3 3 3 3 2 2 1 1 1 1 1 2 1 1 1 0 0 1 1 1 1 2 2 2 2 1 1 1 0 0 0 0 0 0 0 1
4 4 4 3 3 4 4 4 5 4 3 2 2 2 1 1 1 1 1 1 1 1 1 1 1 1 2 2 3 3 3 2 2 1 1 0 0 0 0 0 1 1 1
5 5 5 4 4 5 5 5 5 4 3 3 2 2 1 1 1 1 1 1 1 1 1 2 2 3 3 3 4 4 3 3 3 2 1 1 0 0 0 0 0 1 1
7 6 6 5 5 5 6 5 5 4 3 3 2 2 1 1 1 1 1 1 1 1 2 2 3 4 4 4 4 4 4 3 3 3 2 1 0 0 0 0 0 0 1
Wind_Speed
3 4 11 13 14 14 14 14 14 14 14 15 15 16 16 16 16 16 16 17 17 17 16 16 16 16 16 17 17 17 16 16 16 16 16 16 16 15 16 16 15 11 16
4 5 11 13 13 14 14 14 14 14 15 15 15 16 16 16 16 16 17 17 17 17 17 16 16 15 16 16 16 16 16 16 16 15 15 14 15 14 14 15 14 10 15
6 5 9 12 13 13 14 13 14 15 16 16 16 16 16 16 16 16 16 17 17 17 16 15 15 15 15 15 15 14 14 15 15 15 14 7 9 13 14 15 15 14 14
7 5 8 13 13 13 13 13 14 15 16 16 16 16 16 16 16 16 16 16 16 16 16 15 15 14 14 13 13 12 12 13 14 13 7 5 6 13 14 15 14 14 14
7 5 8 13 13 14 14 13 14 15 15 16 16 16 15 15 15 15 15 16 16 15 15 14 13 13 12 12 11 10 10 11 12 9 5 5 5 12 14 14 14 14 14
7 5 8 13 13 13 13 13 13 15 15 15 15 15 15 15 15 15 15 15 15 14 14 13 12 12 11 10 10 9 10 11 9 5 5 5 5 12 14 14 13 13 13
7 5 7 13 13 13 13 13 13 14 14 14 14 14 14 14 14 14 14 14 13 13 12 12 11 10 9 8 8 8 9 10 6 5 5 5 6 11 13 13 13 13 13
8 6 6 12 13 13 13 13 13 13 14 14 14 13 13 13 13 13 13 13 12 11 11 10 9 9 8 7 6 7 8 8 7 7 5 5 9 11 13 13 12 12 12
8 6 5 5 8 11 12 12 12 12 12 13 13 13 13 12 12 11 11 11 11 10 9 8 8 7 6 5 5 5 6 7 5 4 6 5 10 12 12 12 12 12 12
6 5 5 4 4 4 6 10 11 11 11 11 11 11 12 11 10 10 9 9 9 8 7 6 6 5 4 4 4 4 6 6 4 4 3 6 12 12 12 12 12 12 11
6 4 4 4 4 4 4 7 7 9 9 8 8 10 8 4 4 5 7 7 7 6 5 4 3 3 2 2 2 4 5 2 4 3 3 8 12 12 12 12 12 11 11
7 5 5 5 4 4 4 4 2 3 3 3 2 3 3 2 2 4 5 6 6 5 4 3 2 2 1 1 1 1 2 3 3 3 5 12 12 12 12 12 11 11 11
8 7 6 5 5 4 3 3 1 1 1 2 2 3 2 2 1 2 1 2 2 2 1 1 1 1 1 1 1 1 3 3 2 3 6 13 12 13 12 12 12 12 11
7 7 7 6 5 5 4 3 2 2 1 2 2 3 3 2 2 2 1 1 1 1 1 1 1 1 1 2 2 3 3 3 3 3 5 13 12 13 13 13 12 12 11
7 7 7 6 6 5 4 3 3 3 2 2 2 3 4 3 3 2 2 2 1 1 1 1 1 1 1 1 1 3 3 4 5 4 4 12 12 12 13 13 12 12 12
7 7 6 6 6 5 4 2 2 2 2 2 2 3 4 4 3 3 2 1 1 1 1 1 1 1 0 0 0 1 2 4 4 4 3 7 12 12 12 12 12 12 12
8 7 7 6 5 5 4 3 3 2 2 2 2 3 4 4 4 3 2 1 1 1 1 1 1 1 1 1 1 0 1 3 4 4 4 3 5 10 11 11 11 11 12
8 7 7 7 6 5 4 2 2 2 2 2 2 2 3 4 4 3 2 1 1 1 1 1 1 1 0 0 0 0 0 1 3 4 4 4 3 4 8 11 10 10 10
9 8 6 6 6 4 4 2 2 2 2 2 2 2 3 4 4 3 2 1 1 1 0 1 1 1 1 0 0 0 0 1 2 4 4 4 4 4 3 7 10 10 10
9 8 7 6 5 4 3 2 1 1 1 1 1 1 2 2 3 3 2 1 1 1 0 1 1 1 1 1 0 1 1 1 1 2 4 3 3 4 4 4 4 6 10
8 8 7 6 5 4 2 2 2 1 1 1 1 2 3 2 2 2 1 1 1 1 1 1 1 1 0 1 1 2 2 1 0 1 2 2 3 3 3 4 3 3 3
9 9 8 8 7 5 3 3 2 2 1 1 1 1 2 2 2 2 2 2 1 1 0 0 1 1 0 1 1 1 2 3 2 1 1 2 3 2 3 4 3 3 2
10 10 9 8 7 6 5 3 2 1 1 1 0 1 1 1 2 1 2 2 1 1 1 1 1 2 1 1 1 2 2 2 2 2 0 1 1 2 2 2 3 3 3
11 9 8 8 7 6 5 4 4 3 2 2 1 1 1 1 1 1 2 2 1 1 0 1 1 1 2 1 1 1 2 3 2 1 2 0 1 2 2 2 2 2 2
10 9 8 7 6 5 5 5 4 3 2 1 1 1 0 0 0 0 1 1 1 0 0 0 0 1 1 2 1 1 0 0 1 2 1 1 1 0 1 1 1 1 1
8 7 7 7 6 5 5 5 5 4 3 2 1 1 1 0 0 0 1 1 1 1 1 1 1 1 1 1 1 1 1 1 1 2 2 1 1 1 1 0 1 1 1
Wind_Direction
62 73 85 84 84 86 88 91 93 95 98 100 100 101 100 100 101 103 106 111 112 113 114 113 113 113 116 116 117 119 120 120 119 118 118 118 117 117 119 119 116 116 119
115 89 89 87 87 87 89 91 93 94 99 102 102 103 103 103 103 104 107 110 111 111 112 113 114 114 114 115 116 119 120 119 119 118 118 119 119 119 121 122 120 123 123
103 90 92 91 91 90 90 92 94 97 100 101 102 104 105 105 104 106 108 110 111 112 114 114 114 114 114 116 116 118 119 118 118 117 114 111 117 119 122 123 124 124 124
106 96 99 96 94 93 94 95 98 101 104 104 105 106 107 106 107 108 109 112 113 114 115 114 113 113 113 114 116 118 121 122 120 117 109 112 119 122 123 124 125 127 126
100 97 105 100 97 95 95 97 102 106 107 108 108 108 110 110 110 110 112 115 115 115 115 115 114 113 112 113 115 118 121 121 120 114 109 109 112 125 125 126 126 127 130
102 100 107 104 101 100 98 99 103 108 109 109 110 110 111 111 111 111 113 114 115 115 115 116 116 114 111 110 113 113 120 123 115 111 113 119 122 131 131 130 129 129 131
105 98 107 106 104 102 100 100 104 111 113 113 113 113 113 112 113 113 114 115 116 115 116 118 119 115 113 111 112 112 118 121 117 118 123 126 133 136 135 134 133 134 133
116 107 108 111 108 104 102 102 107 113 116 117 117 117 117 116 116 116 117 119 120 120 121 121 119 118 119 117 114 113 118 124 124 124 126 133 142 141 140 139 139 139 139
120 113 100 105 106 109 108 106 109 115 119 121 121 122 122 121 121 120 121 124 125 126 127 128 125 123 125 131 132 130 126 125 122 133 139 140 149 148 147 146 145 145 144
124 122 118 107 98 100 105 113 114 118 122 125 126 127 128 128 126 126 125 128 129 133 136 135 132 130 131 142 151 143 133 123 122 134 138 155 157 155 153 153 152 151 151
132 139 137 130 126 120 120 124 122 123 124 124 126 131 127 115 118 128 135 139 141 142 146 149 149 147 149 168 178 160 141 131 132 137 150 163 164 163 161 160 158 158 158
152 159 154 151 155 151 138 118 112 120 120 116 115 124 117 125 140 137 142 145 150 153 164 184 206 214 217 222 222 171 140 142 140 152 169 172 171 169 167 167 166 166 167
162 163 164 166 166 160 135 140 139 120 132 141 157 155 138 126 127 120 129 138 143 164 182 251 279 282 263 247 214 168 154 152 160 169 176 176 177 175 175 176 176 175 176
154 160 162 165 161 160 150 153 156 150 155 164 168 164 150 140 146 153 179 196 191 185 198 244 261 271 267 255 216 177 167 165 167 170 180 181 183 182 183 185 184 184 185
149 152 153 151 150 149 147 164 161 167 172 173 161 163 160 153 161 166 183 195 201 187 183 197 236 253 299 312 206 169 165 167 168 171 179 184 186 188 189 191 192 194 194
155 151 145 142 145 141 140 146 144 156 165 164 161 165 161 155 154 154 151 156 177 185 190 176 182 186 86 95 87 160 170 171 172 170 179 187 192 195 197 197 199 201 201
158 152 150 146 141 139 140 145 136 143 142 152 161 158 153 151 148 148 152 164 179 169 151 135 102 85 84 68 58 56 167 168 172 172 175 179 193 202 203 204 206 205 204
156 156 162 154 145 145 143 143 140 135 134 153 155 152 158 156 151 145 158 186 186 148 135 133 127 98 62 68 36 323 120 156 168 175 181 185 189 202 209 208 209 211 212
162 161 163 152 154 155 148 149 142 133 139 153 150 152 166 167 163 153 165 195 176 126 145 178 122 147 168 258 278 280 161 167 188 183 187 190 190 196 201 211 213 215 220
161 159 157 153 162 158 144 124 98 98 127 140 152 159 173 178 173 161 164 188 160 114 107 151 151 155 186 200 284 348 332 227 196 190 194 186 189 199 200 208 218 225 228
160 158 160 164 171 160 144 141 134 161 185 166 183 179 192 196 186 179 165 154 129 148 211 192 138 110 329 112 65 4 348 340 260 209 186 177 193 201 192 207 212 214 233
171 169 171 172 173 173 170 160 161 167 183 182 192 198 203 188 186 174 164 163 167 166 339 329 135 143 257 139 132 95 351 347 341 274 176 175 188 184 187 205 215 215 226
175 176 176 177 176 177 169 143 125 88 53 60 154 222 234 200 186 179 170 175 186 174 203 247 198 169 204 250 176 154 156 228 296 324 293 190 170 148 178 198 203 212 216
184 180 175 174 176 175 166 157 159 165 183 209 191 193 218 229 221 191 180 186 182 161 206 257 206 190 171 230 255 209 184 172 170 296 333 14 158 165 182 201 201 195 202
181 177 176 171 175 175 171 171 169 177 192 189 150 158 198 308 331 191 138 154 165 175 214 285 292 202 179 192 209 216 220 157 150 157 272 314 348 292 179 178 141 152 200
173 169 166 165 175 173 171 170 171 179 187 164 160 161 178 226 308 264 173 195 188 184 222 252 260 237 216 207 197 158 159 168 191 169 196 233 261 311 33 51 97 122 129